Regional Weather Roundup
Issued by NWS

Home | Current Version | Previous Version | Text Only | Print | Product List | Glossary Off
Versions: 1 2 3 4 5 6 7 8 9 10 11 12 13 14 15 16 17 18 19 20 21 22 23 24 25 26 27 28 29 30 31 32 33 34 35 36 37 38 39 40 41 42 43 44 45 46 47 48 49 50

000
ASUS43 KIND 260459
RWRIN

WEATHER ROUNDUP FOR INDIANA
NATIONAL WEATHER SERVICE INDIANAPOLIS IN
1200 AM EST FRI DEC 26 2014

NOTE: "FAIR" INDICATES FEW OR NO CLOUDS BELOW 12,000 FEET WITH NO
SIGNIFICANT WEATHER AND/OR OBSTRUCTIONS TO VISIBILITY.

* - STATION DOES NOT REPORT WEATHER SUCH AS PRECIPITATION OR FOG.

+ - STATION NOT QUALITY CONTROLLED BY THE NATIONAL WEATHER SERVICE.
    USE DATA WITH CAUTION...ESPECIALLY DEWPOINT AND RELATIVE
    HUMIDITY OBSERVATIONS.

INZ001>003-010>013-019-020-260600-
NORTHWEST INDIANA

CITY           SKY/WX    TMP DP  RH WIND       PRES   REMARKS
GARY /AIRPORT/ MOCLDY    40  31  70 S9G18     30.05S
KNOX *+        MOCLDY    36  29  75 S12       30.08R
VALPARAISO     NOT AVBL

$$

LMZ046-743>745-260600-
SOUTHERN LAKE MICHIGAN

STATION/POSITION TIME  TEMP WIND        PRES
                       AIR  DIR/SP/G
                 (UTC) (F)  (DEG/KT/KT) (MB)
MICHIGAN CITY    0400   38  150/ 13/ 18   N/A

$$

INZ004-005-014>016-021>024-260600-
NORTH CENTRAL INDIANA

CITY           SKY/WX    TMP DP  RH WIND       PRES   REMARKS
GOSHEN         MOCLDY    36  31  82 S12       30.08R
SOUTH BEND     CLOUDY    38  32  79 S14       30.08R
WARSAW +       PTCLDY    34  32  93 S5        30.09S WCI  30

$$

INZ006>009-017-018-025>027-260600-
NORTHEAST INDIANA

CITY           SKY/WX    TMP DP  RH WIND       PRES   REMARKS
ANGOLA *+      CLEAR     34  30  86 S8        30.08F WCI  27
FORT WAYNE     MOCLDY    34  30  85 S10       30.11F WCI  26

$$

INZ028-029-035-036-043>045-051>053-260600-
WEST CENTRAL INDIANA

CITY           SKY/WX    TMP DP  RH WIND       PRES   REMARKS
GREENCASTLE +  CLEAR     32  28  86 S7        30.11S WCI  26
LAFAYETTE      PTCLDY    35  31  85 S8        30.09R WCI  29
TERRE HAUTE    CLEAR     37  32  82 S9        30.10S

$$

INZ030>032-037>040-046>048-054>057-064-065-260600-
CENTRAL INDIANA

CITY           SKY/WX    TMP DP  RH WIND       PRES   REMARKS
CP ATTERBURY + CLEAR     34  32  93 MISG      30.15S
INDIANAPOLIS   CLEAR     31  29  92 SE9       30.11F WCI  23
-EAGLE CREEK   CLEAR     34  30  85 SE7       30.11F WCI  28
KOKOMO *+      CLEAR     34  30  86 S13       30.10S WCI  25
MT COMFORT *+  CLEAR     36  28  75 S9        30.13S
SHELBYVILLE    CLEAR     36  31  82 S10       30.14R

$$

INZ033-034-041-042-049-050-058-059-260600-
EAST CENTRAL INDIANA

CITY           SKY/WX    TMP DP  RH WIND       PRES   REMARKS
MUNCIE         CLEAR     36  31  82 S13       30.11S

$$

INZ060-061-067>069-081>083-085>088-260600-
SOUTHWEST INDIANA

CITY           SKY/WX    TMP DP  RH WIND       PRES   REMARKS
EVANSVILLE     CLEAR     38  32  79 SE5       30.15R
HUNTINGBURG *+ CLEAR     37  30  75 S7        30.16S

$$

INZ062-063-066-070>080-084-089>092-260600-
SOUTH CENTRAL AND SOUTHEAST INDIANA

CITY           SKY/WX    TMP DP  RH WIND       PRES   REMARKS
BLOOMINGTON    CLEAR     35  31  85 SE7       30.12S WCI  29
SEYMOUR +      CLEAR     36  32  87 SE7       30.16

$$



USA.gov is the U.S. government's official web portal to all federal, state and local government web resources and services.